Regional Weather Roundup
Issued by NWS Charleston, SC

Home | Current Version | Previous Version | Text Only | Print | Product List | Glossary On
Versions: 1 2 3 4 5 6 7 8 9 10 11 12 13 14 15 16 17 18 19 20 21 22 23 24 25 26 27 28 29 30 31 32 33 34 35 36 37 38 39 40 41 42 43 44 45 46 47 48 49 50
000
ASUS42 KCHS 270027
RWRCHS

REGIONAL WEATHER ROUNDUP
NATIONAL WEATHER SERVICE CHARLESTON SC
800 PM EDT WED JUL 26 2017

NOTE: "FAIR" INDICATES FEW OR NO CLOUDS BELOW 12,000 FEET WITH NO
SIGNIFICANT WEATHER AND/OR OBSTRUCTIONS TO VISIBILITY.

NOT ALL STATIONS ARE QUALITY CONTROLLED. USE DATA WITH CAUTION...
ESPECIALLY DEWPOINT OBSERVATIONS.

SCZ027-030-031-034>040-042>050-270100-
...SOUTHEAST SOUTH CAROLINA...

CITY           SKY/WX    TMP DP  RH WIND       PRES   REMARKS
N CHARLESTON   MOCLDY    82  74  76 E7        30.06R
6HR MIN TEMP:  74; 6HR MAX TEMP:  85; 6HR PCP:  0.03;

WATERFRONT PRK   N/A     82  78  88 E8        30.04F HX  91
JOHNS ISLAND   FAIR      79  77  94 E6        30.07S
PINOPOLIS        N/A     82  75  78 VRB3      30.00S
MONCKS CORNER  HVY RAIN  75  72  88 CALM      30.07R
SUMMERVILLE    FAIR      81  73  78 CALM      30.08R
BEAUFORT MCAS  PTCLDY    82  75  79 SE5       30.06S
6HR MIN TEMP:  79; 6HR MAX TEMP:  87;

BEAUFORT ARPT  FAIR      79  72  78 CALM      30.06S HAZE
HILTON HEAD IS PTCLDY    81  75  83 CALM      30.07R
WALTERBORO     PTCLDY    79  73  83 SE3       30.08R
ALLENDALE      NOT AVBL

...SOUTHERN MIDLANDS AND PEE DEE...

CITY           SKY/WX    TMP DP  RH WIND       PRES   REMARKS
GEORGETOWN     FAIR      77  77 100 E7        30.08S
KINGSTREE      FAIR      79  73  83 E3        30.08R
ORANGEBURG     MOCLDY    80  73  79 NE5       30.07R
6HR MIN TEMP:  75; 6HR MAX TEMP:  81;

BARNWELL       FAIR      81  77  89 CALM      30.07S
AIKEN          FAIR      77  72  83 CALM      30.11F
MANNING        FAIR      77  77 100 CALM      30.08R
COLUMBIA       CLOUDY    83  70  64 SE3       30.07S
6HR MIN TEMP:  82; 6HR MAX TEMP:  88;

SUMTER         CLOUDY    82  72  72 CALM      30.05S
6HR MIN TEMP:  81; 6HR MAX TEMP:  90;

FLORENCE       CLOUDY    81  73  76 SE8       30.08R
6HR MIN TEMP:  81; 6HR MAX TEMP:  90; 6HR PCP: TRACE;

MYRTLE BEACH   PTCLDY    81  75  83 E12       30.08S
N MYRTLE BEACH CLOUDY    81  74  79 E10       30.07S
6HR MIN TEMP:  81; 6HR MAX TEMP:  85;


$$

GAZ063-065-086>088-099>101-113>116-118-119-134>141-150-270100-
...SOUTHEAST GEORGIA...

CITY           SKY/WX    TMP DP  RH WIND       PRES   REMARKS
SAVANNAH ARPT  MOCLDY    83  73  72 E7        30.06S
6HR MIN TEMP:  79; 6HR MAX TEMP:  84; 6HR PCP:  0.01;

HUNTER AAF     CLOUDY    81  73  78 E6        30.03S
6HR MIN TEMP:  78; 6HR MAX TEMP:  83; 6HR PCP: TRACE;

FORT STEWART   CLOUDY    81  74  80 NE7       30.03S
6HR MIN TEMP:  75; 6HR MAX TEMP:  82; 6HR PCP:  0.63;

STATESBORO     CLEAR     80  74  81 CALM      30.06R
SYLVANIA       PTCLDY    79  78  96 CALM      30.08R
CLAXTON        FAIR      80  77  89 CALM      30.05S

...CSRA...CENTRAL AND FAR SOUTHEAST GEORGIA...

CITY           SKY/WX    TMP DP  RH WIND       PRES   REMARKS
THOMSON        CLOUDY    76  74  92 NE3       30.14S
AUGUSTA-BUSH   CLOUDY    80  75  84 N5        30.06F
6HR MIN TEMP:  75; 6HR MAX TEMP:  92; 6HR PCP:  0.21;

AUGUSTA-DANIEL CLOUDY    78  72  81 N5        30.08F
SWAINSBORO     FAIR      82  75  78 E5        30.07R
VIDALIA        CLEAR     81  73  78 CALM      30.06S
EASTMAN        FAIR      82  67  59 E6        30.07S
HAZLEHURST     FAIR      80  76  88 CALM      30.05R
ALMA           CLOUDY    78  74  87 CALM      30.05R
6HR MIN TEMP:  76; 6HR MAX TEMP:  89; 6HR PCP:  0.02;

WAYCROSS       LGT RAIN  78  78 100 NE3       30.05R
JESUP          NOT AVBL
BAXLEY         FAIR      79  79 100 CALM      30.04S
BRUNSWICK      CLOUDY    77  77 100 E5        30.05R
SAINT SIMONS   CLOUDY    78  76  93 E8        30.03S
6HR MIN TEMP:  76; 6HR MAX TEMP:  86; 6HR PCP:  0.59;


$$

SCZ027-028-034-036>038-045-046-048>050-GAZ119-141-270100-
...LAKE AND SUPPLEMENTAL COASTAL OBSERVATIONS...

STATION/POSITION TIME  TEMP    WIND        PRES    WAVE   SWELL
                       AIR SEA DIR/SP/G            HT/PER HT/PER/DIR
                 (UTC) (F)     (DEG/KT/KT) (MB)    (FT/S) (FT/S/D)
WINYAH BAY       2345   80      90/  9     1018.0F
LAKE MURRAY      0020   82     170/  2/  3 1017.3F
ACE BASIN NERRS  2345   81        CALM     1018.0S
FORT PULASKI     0000   81 85  100/ 11/ 13 1018.1
SAPELO ISLAND    0000   76      80/  2     1017.0

$$

ANZ835-935-AMZ111-154-330-350-352-354-370-450-454-472-270100-
...C-MAN AND BUOY OBSERVATIONS...

STATION/POSITION TIME  TEMP    WIND        PRES    WAVE   SWELL
                       AIR SEA DIR/SP/G            HT/PER HT/PER/DIR
                 (UTC) (F)     (DEG/KT/KT) (MB)    (FT/S) (FT/S/D)
BUOY 41004       0010   80 82   80/  6/  8 1017.8
BUOY 41008       2350   81 81  100/  8/ 10 1017.3R   2/ 4   2/160/ 9
FOLLY BEACH CMAN 0000   80      70/  9/ 10 1018.9R
CAPERS NEARSHORE 0008   79 84   90/ 12/ 17 1017.8R
FRIPP NEARSHORE  0008   81 84   90/ 10/ 12 1017.5F


STATION/POSITION TIME  TEMP    WIND        PRES    WAVE   SWELL
                       AIR SEA DIR/SP/G            HT/PER HT/PER/DIR
                 (UTC) (F)     (DEG/KT/KT) (MB)    (FT/S) (FT/S/D)
5E ST. MARYS GA  0000      79                N/A     3/ 5
FRYING PAN BUOY  0010   81 82   60/ 16/ 17 1017.6
BUOY 41025       2350   79 83   50/ 12/ 14 1019.0F   4/ 7   3/ 40/ 7
CAPE LOOKOUT NC  0000   79      60/ 13/ 15 1018.8R
BUOY 41002       2350   81 83  110/  4/  4 1018.0F   2/ 8   2/ 90/ 8
BUOY 41010       0010   85 85  140/  4/  6 1017.3
ST AUGUSTINE FL  0000   80 77  130/  7/  8 1016.9R


$$




USA.gov is the U.S. government's official web portal to all federal, state and local government web resources and services.